SCP
0 0 0 0 0 0 0 -0 0 0 0 0 0 0 0 -0 -0 0 0 0 0 0 0 0 0 0 0 0 -0 0 0 0 0 0 0 0 0 0 0 0 0 0 0 0 0 0 0 0 0 0 0 0 0 0
0 0 0 0 0 0 -0 -0 -0 0 0 -0 -0 0 0 -0 -0 0 0 0 0 0 0 0 0 0 0 0 0 0 0 0 0 0 0 0 0 0 0 0 0 0 0 0 0 0 0 0 0 0 0 0 0 0
0 0 0 0 0 -0 -0 -0 -0 -0 0 0 0 -0 -0 -0 -0 0 0 0 0 0 0 0 0 0 0 0 0 0 0 0 0 0 0 0 0 0 0 0 1 0 0 0 0 0 0 0 0 0 0 0 0 0
0 0 0 0 0 0 -0 -0 -0 -0 -0 0 -0 0 0 0 0 0 0 0 0 0 0 0 0 0 -0 0 0 0 0 0 0 0 0 0 0 0 0 0 1 0 0 0 0 0 0 0 0 0 0 0 0 0
0 0 0 0 0 0 0 0 -0 -0 -0 -0 0 0 -0 -0 -0 0 0 0 0 0 0 0 0 0 0 0 0 0 0 0 0 0 0 -0 0 0 0 0 0 0 0 0 0 0 0 0 0 0 0 0 0 0
0 0 -0 -0 0 0 0 0 -0 -0 -0 -0 -0 -0 -0 -0 -0 0 0 0 0 0 0 0 0 0 0 0 0 0 0 0 0 0 -0 0 -0 0 0 0 0 0 0 0 0 0 0 0 0 0 0 0 0 -0
0 -0 -0 -0 -0 -0 0 0 -0 -0 -0 -0 -0 -0 -0 -0 -0 0 0 -0 0 -0 0 0 0 0 0 0 0 0 0 0 0 -0 -0 -0 -0 0 0 0 0 0 0 0 0 0 1 0 0 0 0 0 0 0
0 -0 0 -0 -0 -0 -0 0 0 -0 -0 0 -0 -0 -0 -0 -0 -0 0 -0 -0 0 -0 -0 0 0 0 0 -0 -0 0 0 0 -0 -0 -0 -0 -0 0 0 0 0 0 0 0 0 0 0 0 0 0 0 0 0
0 0 0 -0 -0 -0 -0 -0 0 -0 -0 -0 -0 -0 0 -0 0 0 -0 -0 -0 0 0 -0 0 0 0 0 0 0 0 0 0 0 -0 0 0 0 0 0 0 0 0 0 0 0 0 0 0 0 0 0 0 0
0 0 -0 -0 -0 -0 -0 -0 -0 -0 -0 -0 0 0 0 0 -0 0 -0 0 0 0 0 0 0 0 0 0 0 0 -0 0 -0 -0 0 -0 0 0 0 0 0 0 0 0 0 0 0 0 0 0 0 0 0 0
0 0 0 -0 -0 -0 -0 -0 -0 -0 0 0 0 0 0 -0 0 0 0 0 0 0 0 -0 0 0 0 0 0 0 0 0 0 0 0 0 -0 0 0 0 0 0 0 0 0 0 0 0 0 0 0 0 0 0
0 0 0 -0 -0 -0 -0 -0 -0 0 0 0 0 0 0 0 0 0 0 0 0 0 0 0 0 0 0 0 0 0 0 0 0 0 0 0 0 0 0 0 0 0 0 0 0 0 0 0 0 0 0 0 0 0
0 0 0 -0 -0 -0 -0 -0 -0 -0 0 0 0 0 0 0 0 0 0 0 0 0 0 0 0 0 0 0 0 0 0 0 0 0 0 0 0 0 0 0 0 0 0 0 0 0 0 0 0 0 0 0 0 0
0 0 0 0 0 -0 -0 -0 -0 0 0 0 0 0 0 0 0 0 0 0 0 0 0 0 0 0 0 0 0 0 0 0 0 0 0 0 0 0 0 0 0 0 0 0 0 0 0 0 0 0 0 0 0 0
-0 -0 0 0 -0 -0 -0 -0 0 0 0 0 0 0 0 0 0 0 -0 0 0 0 0 0 0 0 0 0 0 0 0 0 0 0 0 0 0 0 0 0 0 0 0 0 0 0 0 0 0 0 0 0 0 0
-0 -0 0 0 -0 -0 -0 0 0 0 0 0 0 0 0 0 0 0 0 0 0 0 0 0 0 0 0 0 0 0 0 0 0 0 0 0 0 0 0 0 0 0 0 0 0 0 0 0 0 0 0 0 0 0
-0 0 -0 -0 -0 -0 0 0 0 0 0 0 0 0 0 0 0 0 0 0 0 0 0 0 0 0 0 0 0 0 0 0 0 0 0 0 0 0 0 0 0 0 0 0 0 0 0 0 0 0 0 0 0 0
0 0 -0 -0 -0 -0 0 0 0 0 0 0 0 0 0 0 0 0 0 0 0 0 0 0 0 0 0 0 0 0 0 0 0 0 0 0 0 0 0 0 0 0 0 0 0 0 0 0 0 0 0 0 0 0
-0 -0 -0 -0 -0 -0 -0 0 0 0 0 0 0 0 0 0 0 0 0 0 0 0 0 0 0 0 0 0 0 0 0 0 0 0 0 0 0 0 0 0 0 0 0 0 0 0 0 0 0 0 0 0 0 0
-0 -0 -0 -0 0 -0 -0 0 0 0 0 0 0 0 0 0 0 0 0 0 0 0 0 0 0 0 0 0 0 0 0 0 0 0 0 -0 0 0 0 0 0 0 0 0 0 0 0 0 0 0 0 0 0 0
0 0 0 0 -0 -0 -0 -0 -0 0 0 0 0 0 0 0 0 0 0 0 0 0 0 0 0 0 0 0 0 0 0 0 0 -0 -0 0 0 0 0 0 0 -0 -0 -0 0 0 0 0 0 0 0 0 0 0
0 -0 0 0 0 -0 -0 0 0 0 0 0 0 0 0 0 0 0 0 0 0 0 0 0 0 0 0 0 0 0 0 0 0 0 0 0 0 0 0 0 0 -0 -0 -0 -0 -0 0 0 -0 0 0 0 0 0
0 0 0 0 -0 0 0 0 0 0 0 0 0 0 -0 -0 -0 -0 0 0 -0 -0 -0 -0 0 -0 0 0 0 0 0 0 0 0 -0 0 0 0 0 0 0 0 0 -0 -0 0 0 0 0 0 0 0 0 0
0 0 -0 -0 -0 0 -0 -0 -0 -0 0 0 0 0 0 -0 -0 -0 -0 -0 0 0 -0 -0 0 0 0 0 0 0 0 0 0 -0 -0 0 0 0 0 0 0 0 0 -0 -0 -0 0 0 0 0 0 0 0 0
0 0 0 0 0 0 -0 0 -0 -0 0 0 -0 0 0 -0 0 0 0 0 0 -0 -0 -0 0 0 0 0 0 0 0 0 0 0 -0 -0 -0 -0 -0 0 0 0 0 0 0 0 0 0 0 0 0 0 0 0
0 0 0 0 0 0 0 0 0 0 0 0 0 -0 -0 0 0 0 0 0 -0 -0 -0 -0 0 -0 0 0 0 -0 -0 0 -0 0 0 0 0 0 0 0 0 0 0 -0 0 0 0 0 0 0 0 0 0 0
0 0 0 0 0 0 0 0 0 0 0 0 0 0 0 0 0 0 -0 -0 -0 -0 -0 0 0 0 0 0 0 0 0 0 0 0 0 0 0 0 0 0 0 0 0 -0 -0 0 0 0 0 0 0 0 0 0
0 0 0 0 0 0 0 0 0 0 0 0 0 0 0 -0 -0 -0 -0 0 0 0 0 0 0 0 0 0 0 0 0 0 0 0 0 0 0 0 0 0 0 0 0 0 0 0 0 0 0 0 0 0 0 0
0 0 0 0 0 0 0 0 0 0 0 0 0 0 0 0 0 -0 0 -0 -0 0 0 0 0 0 0 -0 0 0 -0 0 0 0 0 -0 -0 0 0 0 0 0 0 -0 -0 0 0 0 0 0 0 0 0 0
0 0 0 0 0 0 0 0 0 0 0 0 0 0 0 0 0 0 0 0 -0 -0 0 0 0 0 0 0 0 0 0 0 0 0 0 0 0 0 0 0 0 0 0 0 0 0 0 0 0 0 0 0 0 0
0 0 0 0 0 0 0 0 0 0 0 0 0 0 0 0 0 0 0 0 0 0 0 0 0 0 0 0 0 0 0 0 0 0 0 0 0 0 0 0 0 0 0 0 0 0 0 0 0 0 0 0 0 0
0 0 0 0 0 0 0 0 0 0 0 0 0 0 0 0 0 0 0 0 0 0 0 0 0 0 0 0 0 0 0 0 0 0 0 0 0 0 0 0 0 0 0 0 0 0 0 0 0 0 0 0 0 0
0 0 0 0 0 0 0 0 0 0 0 0 0 0 0 0 0 0 0 0 0 0 0 0 0 0 0 0 0 0 0 0 0 0 0 0 0 0 0 0 0 0 0 0 0 0 0 0 0 0 0 0 -0 -0
Wind_Speed_500mb
65 62 64 63 69 60 60 72 38 33 16 13 5 5 14 23 42 38 35 17 18 9 5 2 5 4 2 5 3 6 7 6 3 13 9 8 8 11 10 16 23 12 13 9 7 7 11 17 19 32 15 12 34 52
61 57 56 55 63 68 55 58 63 28 21 10 2 8 8 18 40 39 28 18 27 10 4 18 15 16 21 12 7 4 2 6 6 8 5 4 7 4 19 16 1 24 14 13 15 12 9 72 40 66 35 48 39 42
56 53 51 48 53 62 54 46 48 45 39 29 8 15 15 14 22 28 18 20 2 3 10 19 17 16 27 38 23 8 7 7 9 17 4 3 11 4 8 12 16 8 9 10 8 10 17 58 54 57 44 41 40 42
53 51 47 45 44 53 52 42 41 42 41 34 25 15 10 15 19 17 9 23 5 2 2 7 14 22 20 29 40 29 24 19 16 13 6 2 6 9 7 10 11 12 18 15 8 2 18 23 71 64 41 41 40 34
51 46 43 43 45 47 49 43 36 36 38 34 25 22 19 15 24 21 11 10 3 4 3 17 31 6 12 26 40 38 28 18 13 6 7 5 4 12 10 7 6 10 19 16 14 23 24 25 72 72 50 37 38 36
48 47 43 42 43 43 43 37 34 30 30 30 26 18 9 15 12 7 2 6 15 8 8 7 14 11 12 30 33 33 28 20 19 7 5 12 21 15 7 6 14 13 29 63 14 47 33 30 36 45 48 36 34 33
54 50 41 41 43 42 35 29 28 28 28 22 17 15 9 11 9 9 6 10 2 5 4 5 6 5 6 16 24 29 27 19 17 6 9 13 13 11 9 8 7 2 35 51 47 57 30 42 33 46 46 42 34 29
48 48 42 40 39 40 29 26 25 23 29 24 13 6 5 2 9 10 12 5 4 6 8 4 5 7 2 15 9 21 15 13 11 6 8 2 11 9 10 18 12 20 51 67 56 35 50 47 42 39 42 42 42 36
49 45 40 36 35 35 29 22 21 26 34 18 12 10 4 6 7 8 11 6 4 7 7 4 4 2 3 7 8 12 12 2 4 5 6 5 6 14 10 20 9 6 7 45 54 61 55 54 46 33 29 28 29 26
49 44 37 35 34 29 20 20 32 36 26 21 13 6 5 9 10 17 4 3 4 6 8 5 5 3 4 4 4 2 9 6 3 5 9 5 2 30 29 17 8 14 35 52 53 33 41 39 29 22 24 19 23 22
48 43 40 37 33 27 23 31 35 42 26 19 14 6 14 15 6 3 6 2 4 5 8 5 6 5 6 4 1 2 5 3 3 5 2 5 2 11 25 7 11 11 19 12 29 30 24 27 18 21 22 22 20 17
50 44 39 36 33 32 32 32 39 45 33 23 17 17 12 6 4 2 4 6 3 6 5 3 9 3 10 5 0 2 3 3 5 9 3 5 2 17 17 9 29 37 34 30 29 27 22 21 32 40 45 44 39 38
43 40 39 37 38 39 39 37 38 38 31 10 7 6 6 4 8 5 8 7 7 11 7 20 7 3 5 14 2 2 3 5 2 3 2 4 15 17 13 17 13 10 14 13 13 21 26 30 25 35 30 29 36 36
39 35 35 39 44 50 51 45 38 30 12 10 10 10 5 7 7 4 5 5 15 18 40 29 8 1 7 6 2 4 5 4 3 6 5 6 28 33 9 49 29 11 3 6 4 4 10 18 15 12 9 9 11 11
35 29 40 46 51 53 44 32 26 17 10 10 8 6 5 10 15 26 24 17 14 31 33 12 4 4 3 5 3 5 5 4 5 5 3 20 45 47 47 45 36 37 31 22 14 10 14 22 22 14 8 7 3 2
42 41 50 53 56 49 34 32 17 12 7 8 7 7 14 9 13 21 18 18 33 41 14 5 5 5 3 2 4 2 4 6 4 4 14 21 41 47 52 51 45 42 37 30 25 21 16 9 3 5 11 14 21 20
39 44 47 52 55 42 27 23 14 16 18 11 11 22 24 19 17 24 29 25 37 21 5 4 9 4 6 5 8 10 7 6 8 25 32 31 30 31 42 44 42 39 35 28 22 21 18 15 14 12 15 23 26 28
39 37 43 48 52 40 17 20 9 8 5 6 9 34 32 24 26 26 25 32 21 19 10 4 4 11 7 9 7 8 10 6 13 21 27 26 27 34 37 38 34 30 25 23 20 17 12 13 15 15 16 14 17 21
40 40 45 43 43 22 12 11 11 10 5 15 21 30 17 21 25 29 29 29 20 14 6 8 8 4 2 6 7 16 20 16 16 19 26 29 26 21 26 27 27 24 23 22 17 13 12 14 19 21 20 18 15 5
28 26 36 32 28 13 8 7 11 8 7 13 21 36 23 18 27 22 30 29 28 11 13 7 1 5 9 21 22 20 18 14 23 34 34 27 9 18 26 23 19 11 8 11 11 7 8 13 17 17 15 14 12 10
23 34 29 28 13 15 9 11 10 9 13 13 22 30 18 23 17 25 29 28 23 9 5 12 17 19 19 17 19 24 23 21 20 15 20 22 23 19 20 22 23 22 16 13 14 8 8 17 20 16 12 11 12 11
32 32 21 21 9 10 6 8 16 25 8 15 21 22 10 14 15 16 16 19 14 14 20 19 16 17 21 26 31 24 20 13 14 20 15 8 8 15 19 14 10 11 16 15 12 9 7 13 19 18 20 22 18 13
22 18 11 11 7 8 10 27 8 11 4 16 25 8 8 11 17 15 10 13 12 23 25 26 25 19 18 18 18 28 28 12 10 13 20 26 32 24 23 20 12 10 9 12 7 6 1 3 5 10 13 19 19 19
16 11 9 12 12 9 16 12 14 11 9 9 8 10 11 9 18 6 6 21 33 42 34 32 19 15 9 18 22 27 23 23 16 12 12 12 15 15 16 19 20 8 3 2 3 3 2 2 7 2 7 9 14 15
8 10 8 9 8 8 8 10 9 8 6 6 8 7 9 12 6 5 6 15 42 42 38 17 12 22 18 17 23 28 30 11 12 11 7 4 8 8 15 20 18 11 12 7 7 4 3 9 10 10 4 6 3 6
6 6 5 14 10 5 5 6 5 6 6 7 7 20 12 4 6 7 5 28 37 34 24 21 19 16 20 23 26 24 25 12 13 11 15 13 9 12 17 22 20 21 17 10 6 3 8 14 20 23 21 16 15 11
5 5 6 7 12 14 9 8 7 7 7 7 8 9 7 8 8 8 25 27 32 20 3 7 7 6 17 20 15 17 14 19 16 9 6 7 8 9 15 19 18 20 17 16 14 13 12 10 16 25 32 25 27 27
2 3 2 18 8 5 3 5 7 6 4 9 12 7 8 1 5 16 19 28 13 7 12 13 14 10 4 12 11 3 4 4 13 10 16 17 13 8 9 10 10 10 11 16 13 13 10 8 8 8 6 7 13 19
5 6 7 6 7 4 4 3 2 5 9 13 3 5 8 17 32 22 16 28 11 11 1 4 9 4 5 4 10 18 16 9 5 9 13 14 6 12 21 9 6 5 5 10 13 11 7 7 12 15 13 12 11 14
6 5 7 5 4 5 5 15 25 27 33 35 30 33 33 24 15 12 9 11 8 16 14 12 13 11 12 11 14 14 14 12 12 15 18 21 23 24 20 18 13 12 12 15 15 11 12 14 17 16 13 11 11 11
9 9 7 12 10 16 19 24 33 35 34 34 33 39 42 29 10 13 21 25 28 28 23 15 12 9 6 3 4 9 7 11 13 16 17 17 16 15 16 18 17 17 18 21 22 13 11 14 13 14 20 25 32 29
20 13 10 7 13 24 28 32 35 33 39 39 43 43 37 25 22 24 20 20 20 23 17 15 12 5 0 5 9 13 16 17 18 20 20 20 21 21 21 21 21 20 21 21 21 15 14 14 13 13 14 19 23 9
23 31 29 11 9 7 20 15 15 26 32 42 47 47 42 28 15 19 19 21 18 16 16 17 13 7 8 12 14 16 19 19 16 15 18 22 23 21 22 24 25 25 26 25 23 22 22 20 22 23 26 29 32 31
Wind_Direction_500mb
346 349 356 2 5 3 6 19 13 22 11 357 3 181 197 206 196 196 207 220 190 176 236 298 211 142 129 171 177 318 336 275 232 181 219 218 234 219 185 196 187 149 145 183 106 143 222 161 162 168 186 149 183 197
344 347 354 2 6 5 4 4 17 16 9 13 85 138 143 165 164 181 192 186 201 214 240 226 241 228 228 247 193 265 305 257 302 178 213 317 274 287 186 214 178 192 179 173 183 199 204 168 184 199 188 179 183 187
344 347 352 359 0 4 5 5 11 22 25 27 177 159 154 153 162 184 210 206 123 235 260 259 267 275 247 230 230 222 234 245 80 9 331 270 264 149 198 212 157 203 135 149 123 205 175 185 201 204 195 197 204 206
351 347 351 359 0 4 5 7 12 18 32 43 59 145 174 180 160 166 182 210 263 340 75 294 250 292 272 218 222 229 240 276 294 315 249 157 273 346 273 227 162 182 143 154 218 234 142 202 212 210 211 221 236 213
349 348 355 1 4 4 5 5 10 20 29 33 58 76 79 105 185 192 165 158 77 356 336 291 308 10 293 213 214 225 239 263 251 211 213 185 279 316 299 337 221 190 165 175 205 192 175 197 213 217 213 212 218 224
2 357 356 1 3 4 5 12 16 25 28 35 39 38 135 128 99 104 194 315 287 303 354 316 326 313 313 198 210 221 232 256 240 242 204 206 198 321 275 230 254 218 192 184 185 181 189 190 205 206 205 206 198 196
0 360 358 1 1 6 13 21 21 30 21 21 40 52 60 101 79 24 332 335 302 225 264 277 284 271 283 197 214 230 245 245 232 252 228 176 137 161 284 266 292 132 191 167 161 148 119 150 169 190 185 185 181 175
353 356 356 359 0 4 12 16 11 25 27 30 37 57 127 123 354 11 54 346 343 257 268 259 260 275 204 196 230 206 213 216 224 253 276 174 97 118 260 269 299 100 124 135 146 165 153 138 139 150 163 169 173 186
356 353 355 359 0 3 9 17 19 353 1 6 11 20 23 341 349 343 320 293 270 273 303 278 270 343 337 230 239 208 196 182 249 253 195 98 92 211 263 323 333 41 107 124 127 132 136 135 136 142 149 164 181 193
355 0 3 4 0 7 18 9 355 354 347 348 7 18 353 346 323 330 308 291 251 252 235 255 240 273 238 271 226 191 194 204 168 237 196 139 234 287 315 340 47 84 134 137 125 120 134 137 141 165 167 168 185 199
7 5 2 3 5 8 6 355 358 357 356 6 352 323 318 314 321 2 303 221 267 284 230 271 315 309 273 233 197 257 225 155 250 277 1 63 258 275 299 51 110 117 142 136 125 128 118 144 128 140 139 138 134 156
3 5 11 13 9 1 356 354 351 353 349 324 317 308 327 341 319 349 272 305 226 256 308 194 272 76 311 289 258 329 292 338 255 162 117 116 333 207 257 100 99 89 98 99 98 93 93 116 129 130 122 114 110 106
4 5 8 9 5 2 354 344 337 336 339 339 341 312 340 331 11 13 349 324 323 321 306 333 296 174 345 3 275 280 222 234 187 49 159 85 305 335 239 190 110 112 95 95 134 113 100 110 136 148 135 120 117 123
3 7 13 9 2 351 344 339 335 343 351 11 352 352 35 337 350 302 298 273 272 278 311 313 269 53 48 18 357 315 321 336 44 39 71 314 323 0 156 186 170 181 216 44 112 79 80 155 136 140 131 129 121 130
3 0 3 359 355 351 348 347 343 1 19 28 13 359 326 325 290 305 307 291 313 320 329 318 268 182 36 335 31 330 5 53 34 12 21 357 31 52 91 115 111 100 106 102 111 105 123 123 141 147 176 217 267 292
351 357 357 353 354 355 353 355 4 29 31 27 14 315 293 300 324 340 336 327 347 342 341 343 348 40 252 20 343 326 301 52 53 26 59 62 37 63 84 91 96 92 89 89 83 86 101 113 121 256 289 275 280 282
342 346 346 345 349 357 360 6 23 23 15 0 337 307 300 287 264 298 313 325 343 352 0 0 17 347 359 0 7 345 21 1 1 61 69 75 45 73 78 77 78 80 78 78 72 63 56 21 355 340 272 278 280 279
344 346 347 344 346 358 9 16 31 354 6 285 310 336 333 330 323 334 331 343 346 349 355 8 9 35 354 10 356 338 356 45 111 57 23 44 64 85 82 77 70 66 65 59 55 55 44 22 12 14 9 345 300 267
335 338 341 342 345 348 2 20 10 345 301 317 324 338 337 333 348 343 337 347 2 27 30 33 51 26 336 233 293 359 37 55 85 67 82 47 75 91 79 76 73 71 63 56 48 37 48 55 44 30 23 23 17 325
329 334 339 345 356 356 358 1 345 318 315 324 331 339 333 324 337 3 18 26 30 55 37 43 51 314 336 355 359 358 28 76 114 90 96 117 97 104 99 87 75 68 63 42 48 90 96 77 67 46 29 39 61 110
348 347 353 1 358 5 3 350 324 331 324 312 328 341 319 345 357 6 13 39 46 38 13 9 359 19 16 22 20 32 41 50 75 95 119 100 89 82 98 84 72 72 80 62 65 93 97 71 52 50 48 63 73 104
348 354 356 5 344 331 321 346 303 304 290 299 332 332 323 340 346 10 3 25 24 5 2 359 9 17 19 44 43 31 32 54 82 65 64 61 83 97 80 74 69 94 92 92 84 65 118 80 66 69 65 72 79 91
347 1 358 345 322 324 315 341 328 329 355 311 341 355 340 338 354 11 56 24 14 11 29 41 31 11 15 41 70 51 47 64 102 83 78 77 79 80 62 51 61 78 88 94 72 32 120 29 79 67 76 71 69 77
349 1 4 3 355 320 327 328 329 321 318 353 356 333 326 322 330 63 55 9 8 23 23 21 20 30 43 49 55 33 47 62 82 125 93 98 88 72 46 28 31 133 174 202 86 37 303 252 197 81 62 63 67 72
351 7 9 352 7 340 337 331 326 12 342 319 335 314 324 329 35 44 110 354 10 22 22 14 35 31 42 55 38 31 32 86 94 100 130 132 80 55 37 42 26 6 17 10 273 292 289 247 233 222 292 285 11 43
52 10 43 358 332 21 305 321 312 319 315 313 338 324 329 19 24 30 46 0 351 353 3 30 34 28 48 70 63 48 27 45 42 74 66 55 30 35 29 21 21 26 16 352 348 302 255 249 245 243 247 257 246 246
40 321 359 9 312 299 313 308 311 36 8 9 343 327 348 8 31 329 330 343 337 323 359 342 9 62 95 86 78 89 76 59 58 69 84 97 93 53 38 39 35 21 17 12 25 29 9 319 274 257 248 245 242 256
304 292 256 322 319 308 294 346 10 28 343 316 335 326 348 155 251 294 320 327 296 140 108 90 77 63 87 102 104 149 225 69 80 106 138 132 130 102 75 53 59 41 7 351 353 4 19 27 27 16 351 301 288 274
260 258 285 303 313 310 268 171 243 286 333 340 224 260 275 310 315 303 295 333 108 135 227 135 80 42 11 62 100 91 86 101 105 103 78 58 50 30 15 352 332 351 9 15 15 3 336 313 322 301 296 329 344 269
249 253 215 213 209 241 245 318 315 317 316 316 309 298 301 311 280 267 222 247 225 185 174 168 169 151 117 91 76 66 66 67 65 49 40 29 14 14 5 2 352 319 312 312 317 296 315 316 302 282 276 300 319 338
264 244 225 214 227 256 281 299 308 310 310 307 298 292 289 288 226 180 187 191 185 169 177 191 170 166 166 157 332 335 5 21 5 354 349 344 336 331 331 329 329 319 323 323 330 290 278 306 308 287 289 298 302 292
264 232 227 225 246 275 292 294 298 291 301 295 288 291 284 259 208 198 177 191 217 235 216 201 208 182 97 341 328 323 318 324 325 322 322 324 321 318 317 314 314 312 306 305 317 312 285 286 285 280 287 298 326 305
252 253 255 253 258 240 290 287 289 288 283 277 277 274 265 254 194 198 201 210 221 216 202 207 217 244 282 292 300 305 309 319 332 332 328 329 330 327 315 306 305 306 307 306 306 305 301 297 277 267 268 268 269 278
Wind_Speed_850mb
65 62 64 63 69 60 60 72 38 33 16 13 5 5 14 23 42 38 35 17 18 9 5 2 5 4 2 5 3 6 7 6 3 13 9 8 8 11 10 16 23 12 13 9 7 7 11 17 19 32 15 12 34 52
61 57 56 55 63 68 55 58 63 28 21 10 2 8 8 18 40 39 28 18 27 10 4 18 15 16 21 12 7 4 2 6 6 8 5 4 7 4 19 16 1 24 14 13 15 12 9 72 40 66 35 48 39 42
56 53 51 48 53 62 54 46 48 45 39 29 8 15 15 14 22 28 18 20 2 3 10 19 17 16 27 38 23 8 7 7 9 17 4 3 11 4 8 12 16 8 9 10 8 10 17 58 54 57 44 41 40 42
53 51 47 45 44 53 52 42 41 42 41 34 25 15 10 15 19 17 9 23 5 2 2 7 14 22 20 29 40 29 24 19 16 13 6 2 6 9 7 10 11 12 18 15 8 2 18 23 71 64 41 41 40 34
51 46 43 43 45 47 49 43 36 36 38 34 25 22 19 15 24 21 11 10 3 4 3 17 31 6 12 26 40 38 28 18 13 6 7 5 4 12 10 7 6 10 19 16 14 23 24 25 72 72 50 37 38 36
48 47 43 42 43 43 43 37 34 30 30 30 26 18 9 15 12 7 2 6 15 8 8 7 14 11 12 30 33 33 28 20 19 7 5 12 21 15 7 6 14 13 29 63 14 47 33 30 36 45 48 36 34 33
54 50 41 41 43 42 35 29 28 28 28 22 17 15 9 11 9 9 6 10 2 5 4 5 6 5 6 16 24 29 27 19 17 6 9 13 13 11 9 8 7 2 35 51 47 57 30 42 33 46 46 42 34 29
48 48 42 40 39 40 29 26 25 23 29 24 13 6 5 2 9 10 12 5 4 6 8 4 5 7 2 15 9 21 15 13 11 6 8 2 11 9 10 18 12 20 51 67 56 35 50 47 42 39 42 42 42 36
49 45 40 36 35 35 29 22 21 26 34 18 12 10 4 6 7 8 11 6 4 7 7 4 4 2 3 7 8 12 12 2 4 5 6 5 6 14 10 20 9 6 7 45 54 61 55 54 46 33 29 28 29 26
49 44 37 35 34 29 20 20 32 36 26 21 13 6 5 9 10 17 4 3 4 6 8 5 5 3 4 4 4 2 9 6 3 5 9 5 2 30 29 17 8 14 35 52 53 33 41 39 29 22 24 19 23 22
48 43 40 37 33 27 23 31 35 42 26 19 14 6 14 15 6 3 6 2 4 5 8 5 6 5 6 4 1 2 5 3 3 5 2 5 2 11 25 7 11 11 19 12 29 30 24 27 18 21 22 22 20 17
50 44 39 36 33 32 32 32 39 45 33 23 17 17 12 6 4 2 4 6 3 6 5 3 9 3 10 5 0 2 3 3 5 9 3 5 2 17 17 9 29 37 34 30 29 27 22 21 32 40 45 44 39 38
43 40 39 37 38 39 39 37 38 38 31 10 7 6 6 4 8 5 8 7 7 11 7 20 7 3 5 14 2 2 3 5 2 3 2 4 15 17 13 17 13 10 14 13 13 21 26 30 25 35 30 29 36 36
39 35 35 39 44 50 51 45 38 30 12 10 10 10 5 7 7 4 5 5 15 18 40 29 8 1 7 6 2 4 5 4 3 6 5 6 28 33 9 49 29 11 3 6 4 4 10 18 15 12 9 9 11 11
35 29 40 46 51 53 44 32 26 17 10 10 8 6 5 10 15 26 24 17 14 31 33 12 4 4 3 5 3 5 5 4 5 5 3 20 45 47 47 45 36 37 31 22 14 10 14 22 22 14 8 7 3 2
42 41 50 53 56 49 34 32 17 12 7 8 7 7 14 9 13 21 18 18 33 41 14 5 5 5 3 2 4 2 4 6 4 4 14 21 41 47 52 51 45 42 37 30 25 21 16 9 3 5 11 14 21 20
39 44 47 52 55 42 27 23 14 16 18 11 11 22 24 19 17 24 29 25 37 21 5 4 9 4 6 5 8 10 7 6 8 25 32 31 30 31 42 44 42 39 35 28 22 21 18 15 14 12 15 23 26 28
39 37 43 48 52 40 17 20 9 8 5 6 9 34 32 24 26 26 25 32 21 19 10 4 4 11 7 9 7 8 10 6 13 21 27 26 27 34 37 38 34 30 25 23 20 17 12 13 15 15 16 14 17 21
40 40 45 43 43 22 12 11 11 10 5 15 21 30 17 21 25 29 29 29 20 14 6 8 8 4 2 6 7 16 20 16 16 19 26 29 26 21 26 27 27 24 23 22 17 13 12 14 19 21 20 18 15 5
28 26 36 32 28 13 8 7 11 8 7 13 21 36 23 18 27 22 30 29 28 11 13 7 1 5 9 21 22 20 18 14 23 34 34 27 9 18 26 23 19 11 8 11 11 7 8 13 17 17 15 14 12 10
23 34 29 28 13 15 9 11 10 9 13 13 22 30 18 23 17 25 29 28 23 9 5 12 17 19 19 17 19 24 23 21 20 15 20 22 23 19 20 22 23 22 16 13 14 8 8 17 20 16 12 11 12 11
32 32 21 21 9 10 6 8 16 25 8 15 21 22 10 14 15 16 16 19 14 14 20 19 16 17 21 26 31 24 20 13 14 20 15 8 8 15 19 14 10 11 16 15 12 9 7 13 19 18 20 22 18 13
22 18 11 11 7 8 10 27 8 11 4 16 25 8 8 11 17 15 10 13 12 23 25 26 25 19 18 18 18 28 28 12 10 13 20 26 32 24 23 20 12 10 9 12 7 6 1 3 5 10 13 19 19 19
16 11 9 12 12 9 16 12 14 11 9 9 8 10 11 9 18 6 6 21 33 42 34 32 19 15 9 18 22 27 23 23 16 12 12 12 15 15 16 19 20 8 3 2 3 3 2 2 7 2 7 9 14 15
8 10 8 9 8 8 8 10 9 8 6 6 8 7 9 12 6 5 6 15 42 42 38 17 12 22 18 17 23 28 30 11 12 11 7 4 8 8 15 20 18 11 12 7 7 4 3 9 10 10 4 6 3 6
6 6 5 14 10 5 5 6 5 6 6 7 7 20 12 4 6 7 5 28 37 34 24 21 19 16 20 23 26 24 25 12 13 11 15 13 9 12 17 22 20 21 17 10 6 3 8 14 20 23 21 16 15 11
5 5 6 7 12 14 9 8 7 7 7 7 8 9 7 8 8 8 25 27 32 20 3 7 7 6 17 20 15 17 14 19 16 9 6 7 8 9 15 19 18 20 17 16 14 13 12 10 16 25 32 25 27 27
2 3 2 18 8 5 3 5 7 6 4 9 12 7 8 1 5 16 19 28 13 7 12 13 14 10 4 12 11 3 4 4 13 10 16 17 13 8 9 10 10 10 11 16 13 13 10 8 8 8 6 7 13 19
5 6 7 6 7 4 4 3 2 5 9 13 3 5 8 17 32 22 16 28 11 11 1 4 9 4 5 4 10 18 16 9 5 9 13 14 6 12 21 9 6 5 5 10 13 11 7 7 12 15 13 12 11 14
6 5 7 5 4 5 5 15 25 27 33 35 30 33 33 24 15 12 9 11 8 16 14 12 13 11 12 11 14 14 14 12 12 15 18 21 23 24 20 18 13 12 12 15 15 11 12 14 17 16 13 11 11 11
9 9 7 12 10 16 19 24 33 35 34 34 33 39 42 29 10 13 21 25 28 28 23 15 12 9 6 3 4 9 7 11 13 16 17 17 16 15 16 18 17 17 18 21 22 13 11 14 13 14 20 25 32 29
20 13 10 7 13 24 28 32 35 33 39 39 43 43 37 25 22 24 20 20 20 23 17 15 12 5 0 5 9 13 16 17 18 20 20 20 21 21 21 21 21 20 21 21 21 15 14 14 13 13 14 19 23 9
23 31 29 11 9 7 20 15 15 26 32 42 47 47 42 28 15 19 19 21 18 16 16 17 13 7 8 12 14 16 19 19 16 15 18 22 23 21 22 24 25 25 26 25 23 22 22 20 22 23 26 29 32 31
Wind_Direction_850mb
346 349 356 2 5 3 6 19 13 22 11 357 3 181 197 206 196 196 207 220 190 176 236 298 211 142 129 171 177 318 336 275 232 181 219 218 234 219 185 196 187 149 145 183 106 143 222 161 162 168 186 149 183 197
344 347 354 2 6 5 4 4 17 16 9 13 85 138 143 165 164 181 192 186 201 214 240 226 241 228 228 247 193 265 305 257 302 178 213 317 274 287 186 214 178 192 179 173 183 199 204 168 184 199 188 179 183 187
344 347 352 359 0 4 5 5 11 22 25 27 177 159 154 153 162 184 210 206 123 235 260 259 267 275 247 230 230 222 234 245 80 9 331 270 264 149 198 212 157 203 135 149 123 205 175 185 201 204 195 197 204 206
351 347 351 359 0 4 5 7 12 18 32 43 59 145 174 180 160 166 182 210 263 340 75 294 250 292 272 218 222 229 240 276 294 315 249 157 273 346 273 227 162 182 143 154 218 234 142 202 212 210 211 221 236 213
349 348 355 1 4 4 5 5 10 20 29 33 58 76 79 105 185 192 165 158 77 356 336 291 308 10 293 213 214 225 239 263 251 211 213 185 279 316 299 337 221 190 165 175 205 192 175 197 213 217 213 212 218 224
2 357 356 1 3 4 5 12 16 25 28 35 39 38 135 128 99 104 194 315 287 303 354 316 326 313 313 198 210 221 232 256 240 242 204 206 198 321 275 230 254 218 192 184 185 181 189 190 205 206 205 206 198 196
0 360 358 1 1 6 13 21 21 30 21 21 40 52 60 101 79 24 332 335 302 225 264 277 284 271 283 197 214 230 245 245 232 252 228 176 137 161 284 266 292 132 191 167 161 148 119 150 169 190 185 185 181 175
353 356 356 359 0 4 12 16 11 25 27 30 37 57 127 123 354 11 54 346 343 257 268 259 260 275 204 196 230 206 213 216 224 253 276 174 97 118 260 269 299 100 124 135 146 165 153 138 139 150 163 169 173 186
356 353 355 359 0 3 9 17 19 353 1 6 11 20 23 341 349 343 320 293 270 273 303 278 270 343 337 230 239 208 196 182 249 253 195 98 92 211 263 323 333 41 107 124 127 132 136 135 136 142 149 164 181 193
355 0 3 4 0 7 18 9 355 354 347 348 7 18 353 346 323 330 308 291 251 252 235 255 240 273 238 271 226 191 194 204 168 237 196 139 234 287 315 340 47 84 134 137 125 120 134 137 141 165 167 168 185 199
7 5 2 3 5 8 6 355 358 357 356 6 352 323 318 314 321 2 303 221 267 284 230 271 315 309 273 233 197 257 225 155 250 277 1 63 258 275 299 51 110 117 142 136 125 128 118 144 128 140 139 138 134 156
3 5 11 13 9 1 356 354 351 353 349 324 317 308 327 341 319 349 272 305 226 256 308 194 272 76 311 289 258 329 292 338 255 162 117 116 333 207 257 100 99 89 98 99 98 93 93 116 129 130 122 114 110 106
4 5 8 9 5 2 354 344 337 336 339 339 341 312 340 331 11 13 349 324 323 321 306 333 296 174 345 3 275 280 222 234 187 49 159 85 305 335 239 190 110 112 95 95 134 113 100 110 136 148 135 120 117 123
3 7 13 9 2 351 344 339 335 343 351 11 352 352 35 337 350 302 298 273 272 278 311 313 269 53 48 18 357 315 321 336 44 39 71 314 323 0 156 186 170 181 216 44 112 79 80 155 136 140 131 129 121 130
3 0 3 359 355 351 348 347 343 1 19 28 13 359 326 325 290 305 307 291 313 320 329 318 268 182 36 335 31 330 5 53 34 12 21 357 31 52 91 115 111 100 106 102 111 105 123 123 141 147 176 217 267 292
351 357 357 353 354 355 353 355 4 29 31 27 14 315 293 300 324 340 336 327 347 342 341 343 348 40 252 20 343 326 301 52 53 26 59 62 37 63 84 91 96 92 89 89 83 86 101 113 121 256 289 275 280 282
342 346 346 345 349 357 360 6 23 23 15 0 337 307 300 287 264 298 313 325 343 352 0 0 17 347 359 0 7 345 21 1 1 61 69 75 45 73 78 77 78 80 78 78 72 63 56 21 355 340 272 278 280 279
344 346 347 344 346 358 9 16 31 354 6 285 310 336 333 330 323 334 331 343 346 349 355 8 9 35 354 10 356 338 356 45 111 57 23 44 64 85 82 77 70 66 65 59 55 55 44 22 12 14 9 345 300 267
335 338 341 342 345 348 2 20 10 345 301 317 324 338 337 333 348 343 337 347 2 27 30 33 51 26 336 233 293 359 37 55 85 67 82 47 75 91 79 76 73 71 63 56 48 37 48 55 44 30 23 23 17 325
329 334 339 345 356 356 358 1 345 318 315 324 331 339 333 324 337 3 18 26 30 55 37 43 51 314 336 355 359 358 28 76 114 90 96 117 97 104 99 87 75 68 63 42 48 90 96 77 67 46 29 39 61 110
348 347 353 1 358 5 3 350 324 331 324 312 328 341 319 345 357 6 13 39 46 38 13 9 359 19 16 22 20 32 41 50 75 95 119 100 89 82 98 84 72 72 80 62 65 93 97 71 52 50 48 63 73 104
348 354 356 5 344 331 321 346 303 304 290 299 332 332 323 340 346 10 3 25 24 5 2 359 9 17 19 44 43 31 32 54 82 65 64 61 83 97 80 74 69 94 92 92 84 65 118 80 66 69 65 72 79 91
347 1 358 345 322 324 315 341 328 329 355 311 341 355 340 338 354 11 56 24 14 11 29 41 31 11 15 41 70 51 47 64 102 83 78 77 79 80 62 51 61 78 88 94 72 32 120 29 79 67 76 71 69 77
349 1 4 3 355 320 327 328 329 321 318 353 356 333 326 322 330 63 55 9 8 23 23 21 20 30 43 49 55 33 47 62 82 125 93 98 88 72 46 28 31 133 174 202 86 37 303 252 197 81 62 63 67 72
351 7 9 352 7 340 337 331 326 12 342 319 335 314 324 329 35 44 110 354 10 22 22 14 35 31 42 55 38 31 32 86 94 100 130 132 80 55 37 42 26 6 17 10 273 292 289 247 233 222 292 285 11 43
52 10 43 358 332 21 305 321 312 319 315 313 338 324 329 19 24 30 46 0 351 353 3 30 34 28 48 70 63 48 27 45 42 74 66 55 30 35 29 21 21 26 16 352 348 302 255 249 245 243 247 257 246 246
40 321 359 9 312 299 313 308 311 36 8 9 343 327 348 8 31 329 330 343 337 323 359 342 9 62 95 86 78 89 76 59 58 69 84 97 93 53 38 39 35 21 17 12 25 29 9 319 274 257 248 245 242 256
304 292 256 322 319 308 294 346 10 28 343 316 335 326 348 155 251 294 320 327 296 140 108 90 77 63 87 102 104 149 225 69 80 106 138 132 130 102 75 53 59 41 7 351 353 4 19 27 27 16 351 301 288 274
260 258 285 303 313 310 268 171 243 286 333 340 224 260 275 310 315 303 295 333 108 135 227 135 80 42 11 62 100 91 86 101 105 103 78 58 50 30 15 352 332 351 9 15 15 3 336 313 322 301 296 329 344 269
249 253 215 213 209 241 245 318 315 317 316 316 309 298 301 311 280 267 222 247 225 185 174 168 169 151 117 91 76 66 66 67 65 49 40 29 14 14 5 2 352 319 312 312 317 296 315 316 302 282 276 300 319 338
264 244 225 214 227 256 281 299 308 310 310 307 298 292 289 288 226 180 187 191 185 169 177 191 170 166 166 157 332 335 5 21 5 354 349 344 336 331 331 329 329 319 323 323 330 290 278 306 308 287 289 298 302 292
264 232 227 225 246 275 292 294 298 291 301 295 288 291 284 259 208 198 177 191 217 235 216 201 208 182 97 341 328 323 318 324 325 322 322 324 321 318 317 314 314 312 306 305 317 312 285 286 285 280 287 298 326 305
252 253 255 253 258 240 290 287 289 288 283 277 277 274 265 254 194 198 201 210 221 216 202 207 217 244 282 292 300 305 309 319 332 332 328 329 330 327 315 306 305 306 307 306 306 305 301 297 277 267 268 268 269 278